Flight Track Log - Related Links

Times and Time Zones

All times are in EDT time to prevent confusion due to time zone crossing. See the N589H flight status page for this flight to view local times or setup timezone preferences in your user account.

Time Position Orientation Groundspeed Altitude Reporting Facility
EDT Latitude Longitude Course Direction KTS MPH feet Rate Location/Type
Thu 09:52:57 PM 35.1719 -80.9339 172° South 142 163 3,500  Level Atlanta Center
Thu 09:53:58 PM 35.1281 -80.9278 174° South 168 193 6,200 2,207 Climbing Atlanta Center
Thu 09:56:10 PM 35.0203 -80.9053 170° South 187 215 10,600 1,990 Climbing Jacksonville Center
Thu 09:57:11 PM 34.9636 -80.8914 169° South 201 231 12,600 1,983 Climbing Jacksonville Center
Thu 09:58:11 PM 34.8989 -80.8853 176° South 214 246 14,600 2,050 Climbing Jacksonville Center
Thu 09:59:11 PM 34.8431 -80.9144 203° Southwest 220 253 16,700 1,800 Climbing Jacksonville Center
Thu 10:00:11 PM 34.7789 -80.9414 199° South 227 261 18,200 1,650 Climbing Jacksonville Center
Thu 10:01:11 PM 34.7167 -80.9578 192° South 235 270 20,000 1,800 Climbing Jacksonville Center
Thu 10:02:11 PM 34.6483 -80.9947 204° Southwest 253 291 21,800 1,765 Climbing Jacksonville Center
Thu 10:03:10 PM 34.5797 -81.0189 196° South 258 297 23,500 1,563 Climbing Jacksonville Center
Thu 10:04:10 PM 34.5114 -81.0456 198° South 258 297 24,900 1,240 Climbing Jacksonville Center
Thu 10:05:11 PM 34.4386 -81.0697 195° South 270 311 26,000 545 Climbing Jacksonville Center
Thu 10:06:11 PM 34.3536 -81.0942 193° South 293 337 26,000  Level Jacksonville Center
Thu 10:07:11 PM 34.2558 -81.1214 193° South 310 357 26,000  Level Jacksonville Center
Thu 10:08:11 PM 34.1561 -81.1461 192° South 337 388 26,000  Level Jacksonville Center
Thu 10:09:11 PM 34.0647 -81.1703 192° South 365 420 26,000  Level Jacksonville Center
Thu 10:10:10 PM 33.9628 -81.1975 192° South 376 433 26,000  Level Jacksonville Center
Thu 10:11:10 PM 33.8631 -81.2244 193° South 376 433 26,000  Level Jacksonville Center
Thu 10:12:10 PM 33.7486 -81.2514 191° South 377 434 26,000  Level Jacksonville Center
Thu 10:13:10 PM 33.6486 -81.2783 193° South 377 434 26,000  Level Jacksonville Center
Thu 10:14:11 PM 33.5467 -81.3050 192° South 371 427 26,000  Level Jacksonville Center
Thu 10:15:11 PM 33.4469 -81.3317 193° South 371 427 26,000  Level Jacksonville Center
Thu 10:16:11 PM 33.3450 -81.3558 191° South 376 433 26,000  Level Jacksonville Center
Thu 10:17:11 PM 33.2533 -81.3825 194° South 371 427 26,000  Level Jacksonville Center
Thu 10:18:10 PM 33.1431 -81.4089 191° South 376 433 26,000  Level Jacksonville Center
Thu 10:19:11 PM 33.0411 -81.4356 192° South 376 433 26,000  Level Jacksonville Center
Thu 10:20:11 PM 32.9392 -81.4594 191° South 376 433 26,000  Level Jacksonville Center
Thu 10:21:11 PM 32.8392 -81.4883 194° South 376 433 26,000  Level Jacksonville Center
Thu 10:22:11 PM 32.7372 -81.5119 191° South 376 433 26,000  Level Jacksonville Center
Thu 10:23:11 PM 32.6394 -81.5406 194° South 376 433 26,000  Level Jacksonville Center
Thu 10:24:11 PM 32.5458 -81.5617 191° South 376 433 26,000  Level Jacksonville Center
Thu 10:25:11 PM 32.4353 -81.5906 192° South 376 433 26,000  Level Jacksonville Center
Thu 10:26:11 PM 32.3439 -81.6139 192° South 376 433 26,000  Level Jacksonville Center
Thu 10:27:11 PM 32.2333 -81.6425 192° South 376 433 26,000  Level Jacksonville Center
Thu 10:28:11 PM 32.1314 -81.6683 192° South 376 433 26,000  Level Jacksonville Center
Thu 10:29:11 PM 32.0397 -81.6917 192° South 376 433 26,000  Level Jacksonville Center
Thu 10:30:11 PM 31.9272 -81.7200 192° South 376 433 26,000  Level Jacksonville Center
Thu 10:31:11 PM 31.8378 -81.7433 192° South 376 433 26,000  Level Jacksonville Center
Thu 10:32:11 PM 31.7253 -81.7689 191° South 376 433 26,000  Level Jacksonville Center
Thu 10:33:11 PM 31.6272 -81.7969 194° South 376 433 26,000  Level Jacksonville Center
Thu 10:34:11 PM 31.5356 -81.8200 192° South 376 433 26,000  Level Jacksonville Center
Thu 10:35:11 PM 31.4253 -81.8456 191° South 370 426 26,000  Level Jacksonville Center
Thu 10:36:11 PM 31.3189 -81.8761 194° South 385 443 26,000  Level Jacksonville Center
Thu 10:37:11 PM 31.2189 -81.8989 191° South 379 436 26,000  Level Jacksonville Center
Thu 10:38:11 PM 31.1189 -81.9219 191° South 368 423 26,000  Level Jacksonville Center
Thu 10:39:11 PM 31.0167 -81.9497 193° South 373 429 26,000  Level Jacksonville Center
Thu 10:40:10 PM 30.9167 -81.9725 191° South 373 429 26,000  Level Jacksonville Center
Thu 10:41:10 PM 30.8125 -81.9975 192° South 373 429 26,000  Level Jacksonville Center
Thu 10:42:11 PM 30.7228 -82.0203 192° South 373 429 26,000  Level Jacksonville Center
Thu 10:43:11 PM 30.6186 -82.0453 192° South 373 429 26,000  Level Jacksonville Center
Thu 10:44:11 PM 30.5081 -82.0703 191° South 373 429 26,000  Level Jacksonville Center
Thu 10:45:11 PM 30.4081 -82.0953 192° South 373 429 26,000  Level Jacksonville Center
Thu 10:46:11 PM 30.3058 -82.1178 191° South 378 435 26,000  Level Jacksonville Center
Thu 10:47:11 PM 30.2017 -82.1428 192° South 373 429 26,000  Level Jacksonville Center
Thu 10:48:11 PM 30.0994 -82.1675 192° South 373 429 26,000  Level Jacksonville Center
Thu 10:49:10 PM 30.0078 -82.1944 194° South 378 435 26,000 -101 Level Jacksonville Center
Thu 10:50:10 PM 29.9078 -82.2169 191° South 372 428 25,800 -595 Descending Jacksonville Center
Thu 10:51:11 PM 29.8078 -82.2439 193° South 372 428 24,800 -1,091 Descending Jacksonville Center
Thu 10:52:11 PM 29.6931 -82.2661 190° South 372 428 23,600 -1,100 Descending Jacksonville Center
Thu 10:53:11 PM 29.5928 -82.2908 192° South 372 428 22,600 -1,050 Descending Jacksonville Center
Thu 10:54:11 PM 29.4906 -82.3175 193° South 372 428 21,500 -1,100 Descending Jacksonville Center
Thu 10:55:11 PM 29.3947 -82.3394 191° South 372 428 20,400 -1,050 Descending Jacksonville Center
Thu 10:56:11 PM 29.3050 -82.3592 191° South 360 414 19,400 -1,050 Descending Jacksonville Center
Thu 10:57:11 PM 29.2153 -82.3833 193° South 347 399 18,300 -950 Descending Jacksonville Center
Thu 10:58:11 PM 29.1258 -82.4028 191° South 336 387 17,500 -900 Descending Jacksonville Center
Thu 10:59:11 PM 29.0361 -82.4222 191° South 336 387 16,500 -1,050 Descending Jacksonville Center
Thu 11:00:11 PM 28.9506 -82.4442 193° South 331 381 15,400 -1,350 Descending Jacksonville Center
Thu 11:01:11 PM 28.8631 -82.4633 191° South 326 375 13,800 -1,375 Descending Jacksonville Center
Thu 11:03:23 PM 28.6833 -82.5000 190° South 280 322 11,000 -1,030 Descending Tampa TRACON
Thu 11:04:29 PM 28.6000 -82.5333 199° South 275 316 10,400 -750 Descending Tampa TRACON
Thu 11:05:23 PM 28.5500 -82.5500 196° South 276 318 9,500 -1,053 Descending Tampa TRACON
Thu 11:06:23 PM 28.4833 -82.6167 221° Southwest 261 300 8,400 -1,400 Descending Tampa TRACON
Thu 11:07:23 PM 28.4333 -82.6667 221° Southwest 254 292 6,700 -1,700 Descending Tampa TRACON
Thu 11:08:23 PM 28.3667 -82.7000 204° Southwest 244 281 5,000 -1,450 Descending Tampa TRACON
Thu 11:09:23 PM 28.3000 -82.7000 180° South 229 264 3,800 -1,200 Descending Tampa TRACON
Thu 11:10:23 PM 28.2500 -82.7000 180° South 215 247 2,600 -600 Descending Tampa TRACON
Thu 11:11:23 PM 28.2000 -82.7167 196° South 197 227 2,600  Level Tampa TRACON
Thu 11:12:23 PM 28.1500 -82.7333 196° South 181 208 2,600  Level Tampa TRACON
Thu 11:13:23 PM 28.1000 -82.7167 164° South 179 206 2,600 -200 Level Tampa TRACON
Thu 11:14:23 PM 28.0500 -82.7167 180° South 180 207 2,200 -450 Descending Tampa TRACON
Thu 11:15:23 PM 28.0000 -82.7000 164° South 107 123 1,700 -550 Descending Tampa TRACON
Thu 11:16:23 PM 27.9833 -82.7000 180° South 101 116 1,100 -595 Descending Tampa TRACON
Thu 11:17:24 PM 27.9500 -82.7000 180° South 121 139 500 -590 Descending Tampa TRACON

Login

Don't have an account? Register now (free) for customized features, flight alerts, and more!